Location: *
(58.7167°N, 26.1833°E)
Time: 06:40:58
(UTC+00:00)

Cosmos 2360 Rocket - Pass Details

Date: 25 August 2019
Orbit: 835 x 844 km, 71.0° (Epoch: 14 September)

Event Time Altitude Azimuth Distance (km) Brightness Sun altitude
Rises 19:50:04 0° 320° (NW) 3,398 7.3 -14.5°
Reaches altitude 10° 19:52:32 10° 323° (NW) 2,462 6.1 -14.7°
Maximum altitude 19:58:10 67° 46° (NE) 909 2.4 -15.1°
Enters shadow 20:01:52 22° 125° (SE) 1,763 3.3 -15.4°
